TAM3015 SBBR-SBSP

Flight info

Callsign TAM3015
Flight time N/A
Altitude 33000
Route GEBEP UZ2 ENTIT
Aircraft A320/M-SDE3FGHIRWY/LB1

Departure

Time 2026-05-05 00:20
Airport Presidente Juscelino Kubitschek International Airport (SBBR)

Arrival

Time N/A
Airport Congonhas–Deputado Freitas Nobre Airport (SBSP)
Time Latitude Longitude Altitude Speed Heading
2026-05-04 23:53 -15.87263 -47.91801 3472 ft 0 kts 356°
2026-05-05 00:06 -15.87269 -47.91800 3472 ft 2 kts 356°
2026-05-05 00:06 -15.87285 -47.91799 3446 ft 2 kts 356°
2026-05-05 00:06 -15.87302 -47.91798 3472 ft 2 kts
2026-05-05 00:07 -15.87317 -47.91802 3472 ft 2 kts 62°
2026-05-05 00:07 -15.87322 -47.91815 3470 ft 1 kts 84°
2026-05-05 00:07 -15.87322 -47.91818 3471 ft 0 kts 85°
2026-05-05 00:11 -15.87322 -47.91813 3472 ft 1 kts 85°
2026-05-05 00:12 -15.87321 -47.91798 3472 ft 3 kts 85°
2026-05-05 00:12 -15.87320 -47.91791 3472 ft 3 kts 85°
2026-05-05 00:12 -15.87346 -47.91666 3471 ft 11 kts 173°
2026-05-05 00:13 -15.87425 -47.91661 3471 ft 13 kts 176°
2026-05-05 00:13 -15.87539 -47.91654 3467 ft 19 kts 176°
2026-05-05 00:13 -15.87685 -47.91643 3463 ft 19 kts 176°
2026-05-05 00:13 -15.87738 -47.91706 3463 ft 13 kts 263°
2026-05-05 00:14 -15.87745 -47.91815 3465 ft 19 kts 266°
2026-05-05 00:14 -15.87755 -47.91959 3468 ft 20 kts 266°
2026-05-05 00:14 -15.87761 -47.92053 3470 ft 20 kts 266°
2026-05-05 00:14 -15.87773 -47.92243 3473 ft 20 kts 266°
2026-05-05 00:15 -15.87779 -47.92338 3475 ft 20 kts 266°
2026-05-05 00:15 -15.87788 -47.92482 3476 ft 20 kts 266°
2026-05-05 00:15 -15.87798 -47.92632 3477 ft 21 kts 266°
2026-05-05 00:15 -15.87811 -47.92846 3481 ft 23 kts 266°
2026-05-05 00:16 -15.87819 -47.92958 3480 ft 23 kts 266°
2026-05-05 00:16 -15.87830 -47.93128 3485 ft 23 kts 266°
2026-05-05 00:16 -15.87840 -47.93284 3494 ft 20 kts 266°
2026-05-05 00:16 -15.87849 -47.93424 3507 ft 19 kts 266°
2026-05-05 00:17 -15.87858 -47.93572 3500 ft 21 kts 266°
2026-05-05 00:17 -15.87867 -47.93716 3506 ft 19 kts 266°
2026-05-05 00:17 -15.87876 -47.93849 3509 ft 18 kts 266°
2026-05-05 00:17 -15.87899 -47.93976 3511 ft 17 kts 220°
2026-05-05 00:18 -15.87985 -47.93994 3513 ft 6 kts 174°
2026-05-05 00:18 -15.88026 -47.93990 3511 ft 6 kts 174°
2026-05-05 00:18 -15.88061 -47.93970 3514 ft 6 kts 120°
2026-05-05 00:18 -15.88063 -47.93931 3510 ft 1 kts 83°
2026-05-05 00:19 -15.88061 -47.93908 3512 ft 7 kts 83°
2026-05-05 00:19 -15.88046 -47.93681 3505 ft 66 kts 86°
2026-05-05 00:19 -15.88002 -47.92991 3482 ft 125 kts 86°
2026-05-05 00:19 -15.87931 -47.91915 3473 ft 171 kts 85°
2026-05-05 00:20 -15.87866 -47.90674 4076 ft 171 kts 92°
2026-05-05 00:20 -15.88103 -47.89464 4750 ft 173 kts 111°
2026-05-05 00:20 -15.88787 -47.88356 4965 ft 198 kts 131°
2026-05-05 00:20 -15.89955 -47.87448 5180 ft 224 kts 149°
2026-05-05 00:21 -15.91541 -47.86887 5385 ft 257 kts 166°
2026-05-05 00:21 -15.93406 -47.86725 5898 ft 274 kts 175°
2026-05-05 00:21 -15.95332 -47.86660 6665 ft 279 kts 175°
2026-05-05 00:21 -15.97261 -47.86594 7420 ft 282 kts 175°
2026-05-05 00:22 -15.99236 -47.86526 8188 ft 285 kts 176°
2026-05-05 00:22 -16.01228 -47.86316 8925 ft 289 kts 168°
2026-05-05 00:22 -16.03198 -47.85822 9679 ft 291 kts 163°
2026-05-05 00:22 -16.04489 -47.85415 10171 ft 293 kts 162°
2026-05-05 00:23 -16.07136 -47.84517 10637 ft 316 kts 162°
2026-05-05 00:23 -16.09300 -47.83785 10761 ft 338 kts 162°
2026-05-05 00:23 -16.11622 -47.83029 10871 ft 359 kts 163°
2026-05-05 00:23 -16.14076 -47.82262 11150 ft 372 kts 163°
2026-05-05 00:24 -16.16556 -47.81509 11636 ft 377 kts 163°
2026-05-05 00:24 -16.19097 -47.80747 12168 ft 381 kts 163°
2026-05-05 00:24 -16.21653 -47.79981 12691 ft 384 kts 163°
2026-05-05 00:24 -16.24239 -47.79204 13213 ft 388 kts 163°
2026-05-05 00:25 -16.26850 -47.78418 13697 ft 392 kts 163°
2026-05-05 00:25 -16.29461 -47.77628 14150 ft 396 kts 163°
2026-05-05 00:25 -16.32127 -47.76822 14610 ft 399 kts 164°
2026-05-05 00:25 -16.34810 -47.76010 15088 ft 402 kts 164°
2026-05-05 00:26 -16.37511 -47.75192 15556 ft 404 kts 164°
2026-05-05 00:26 -16.40224 -47.74368 16044 ft 407 kts 164°
2026-05-05 00:26 -16.42921 -47.73550 16534 ft 409 kts 164°
2026-05-05 00:26 -16.45680 -47.72715 17021 ft 412 kts 164°
2026-05-05 00:27 -16.48453 -47.71877 17513 ft 415 kts 164°
2026-05-05 00:27 -16.51209 -47.71044 17987 ft 419 kts 165°
2026-05-05 00:27 -16.54026 -47.70193 18460 ft 422 kts 165°
2026-05-05 00:27 -16.56860 -47.69334 18895 ft 424 kts 165°
2026-05-05 00:28 -16.59701 -47.68470 19322 ft 426 kts 165°
2026-05-05 00:28 -16.62556 -47.67604 19751 ft 428 kts 165°
2026-05-05 00:28 -16.65381 -47.66746 20180 ft 429 kts 165°
2026-05-05 00:28 -16.68263 -47.65869 20592 ft 431 kts 165°
2026-05-05 00:29 -16.71156 -47.64990 20991 ft 433 kts 165°
2026-05-05 00:29 -16.74064 -47.64109 21378 ft 435 kts 165°
2026-05-05 00:29 -16.76974 -47.63228 21765 ft 436 kts 165°
2026-05-05 00:29 -16.79865 -47.62350 22138 ft 438 kts 165°
2026-05-05 00:30 -16.82812 -47.61454 22504 ft 440 kts 165°
2026-05-05 00:30 -16.85765 -47.60553 22859 ft 442 kts 165°
2026-05-05 00:30 -16.87724 -47.59954 23086 ft 443 kts 165°